GW2845 Weather Reports


Display with metric or nautical units.
time (UTC)temp
F
wind
direction
speed
MPH
gust
MPH
rain 1hr
in
rain 24hr
in
rain mn
in
humidity
%
barometer
mb
20260506091201 49 9 1.0 3.0 0.07 0.34 0.33 99 1006.1
20260506090134 49 0.0 0.0 0.06 0.33 0.32 99 1006.0
20260506085121 49 336 1.0 5.0 0.05 0.31 0.30 99 1006.0
20260506084130 49 322 1.0 2.0 0.05 0.30 0.29 99 1005.9
20260506083119 49 332 2.0 5.0 0.06 0.30 0.28 99 1006.0
20260506082044 49 339 2.0 5.0 0.06 0.30 0.28 99 1005.9
20260506081102 49 323 1.0 2.0 0.06 0.28 0.26 99 1005.9
20260506080142 49 307 2.0 6.0 0.07 0.28 0.26 99 1005.9
20260506073106 48 331 3.0 6.0 0.07 0.24 0.22 99 1005.6
20260506072111 48 322 2.0 5.0 0.06 0.23 0.21 99 1005.6
20260506071154 48 310 2.0 6.0 0.07 0.22 0.20 99 1005.6
20260506070117 48 326 2.0 6.0 0.07 0.21 0.19 99 1005.6
20260506062128 48 341 2.0 5.0 0.07 0.17 0.15 99 1005.3
20260506061134 48 341 2.0 5.0 0.05 0.15 0.13 99 1005.4
20260506044634 48 9 2.0 3.0 0.04 0.10 0.08 99 1005.5
20260506043652 48 311 2.0 3.0 0.04 0.10 0.07 99 1005.4
20260506042735 48 299 2.0 3.0 0.05 0.10 0.07 99 1005.6
20260506041600 48 310 1.0 3.0 0.04 0.09 0.06 98 1005.7
20260506040729 48 321 1.0 2.0 0.04 0.08 0.05 98 1005.8
20260506035643 48 288 0.0 3.0 0.05 0.08 0.05 97 1005.7
20260506034626 48 359 0.0 2.0 0.04 0.07 0.04 97 1005.9
20260506033606 49 335 0.0 3.0 0.03 0.07 0.03 96 1005.8
20260506032646 49 0.0 0.0 0.02 0.06 0.02 95 1006.0
20260506031614 49 318 1.0 3.0 0.02 0.06 0.02 94 1006.1
20260506030657 49 308 0.0 1.0 0.01 0.06 0.01 93 1006.1
20260506025642 50 331 2.0 5.0 0.00 0.05 0.00 93 1006.1
20260506024617 50 317 2.0 3.0 0.00 0.05 0.00 92 1006.2
20260506023645 50 331 1.0 3.0 0.00 0.05 0.00 92 1006.3
20260506022549 50 330 1.0 5.0 0.00 0.05 0.00 91 1006.4
20260506021623 50 316 2.0 6.0 0.00 0.06 0.00 91 1006.4
20260506020703 50 297 0.0 2.0 0.00 0.06 0.00 91 1006.4
20260506015611 50 299 1.0 3.0 0.00 0.06 0.00 91 1006.6
20260506014638 50 356 0.0 3.0 0.00 0.07 0.00 92 1006.7
20260506013633 50 337 1.0 5.0 0.00 0.07 0.00 92 1006.7
20260506012601 50 324 1.0 6.0 0.00 0.07 0.00 93 1006.7
20260506011642 51 289 1.0 5.0 0.00 0.08 0.00 94 1006.7
20260506010630 51 311 1.0 5.0 0.00 0.08 0.00 94 1006.9
20260506005655 51 309 1.0 2.0 0.00 0.08 0.00 94 1006.9
20260506004638 51 285 1.0 3.0 0.00 0.09 0.00 94 1007.0
20260506003636 51 313 0.0 1.0 0.00 0.09 0.00 94 1007.1
20260506002612 51 290 1.0 3.0 0.00 0.09 0.00 94 1007.1
20260506001730 51 0.0 0.0 0.00 0.09 0.00 94 1007.2
20260506000705 51 331 1.0 6.0 0.00 0.10 0.00 95 1007.2
20260505235642 51 304 1.0 3.0 0.00 0.10 0.00 95 1007.3
20260505234633 51 281 2.0 3.0 0.00 0.11 0.00 95 1007.4
20260505233548 51 316 1.0 5.0 0.00 0.11 0.00 96 1007.3
20260505232632 51 297 1.0 5.0 0.00 0.11 0.00 96 1007.4
20260505231704 51 315 2.0 6.0 0.00 0.11 0.00 96 1007.4
20260505230618 51 327 2.0 5.0 0.00 0.11 0.00 97 1007.5
20260505225631 51 346 4.0 5.0 0.00 0.11 0.00 97 1007.8
20260505224128 52 32 1.0 3.0 0.00 0.11 0.00 97 1007.6
20260505223109 52 0.0 0.0 0.00 0.11 0.00 97 1007.6
20260505222149 52 348 2.0 7.0 0.00 0.11 0.00 97 1007.7
20260505221133 52 0.0 0.0 0.00 0.11 0.00 98 1007.8
20260505215217 52 335 1.0 2.0 0.00 0.11 0.11 98 1007.8
20260505214136 52 0.0 0.0 0.00 0.11 0.11 98 1008.1
20260505212649 52 0.0 0.0 0.00 0.11 0.11 98 1008.0
20260505211710 52 335 1.0 3.0 0.00 0.11 0.11 98 1008.0
20260505210554 52 322 3.0 5.0 0.00 0.11 0.11 98 1008.1
20260505205615 52 353 0.0 2.0 0.00 0.11 0.11 97 1008.1
20260505204610 52 6 1.0 7.0 0.00 0.11 0.11 97 1008.2
20260505203656 52 342 1.0 2.0 0.00 0.11 0.11 97 1008.1
20260505202746 52 271 1.0 7.0 0.00 0.11 0.11 97 1008.2
20260505201612 52 340 1.0 3.0 0.00 0.11 0.11 97 1008.2
20260505200551 53 308 1.0 5.0 0.00 0.11 0.11 96 1008.2
20260505195533 53 325 2.0 6.0 0.00 0.11 0.11 96 1008.2
20260505194636 53 337 1.0 5.0 0.00 0.11 0.11 96 1008.2
20260505193709 53 3 2.0 7.0 0.00 0.11 0.11 96 1008.2
20260505192640 53 360 3.0 7.0 0.00 0.11 0.11 96 1008.2
20260505191611 53 301 2.0 5.0 0.00 0.11 0.11 96 1008.2
20260505190659 53 326 2.0 5.0 0.00 0.11 0.11 96 1008.2
20260505185629 54 349 1.0 5.0 0.00 0.11 0.11 96 1008.0
20260505184702 54 328 3.0 6.0 0.00 0.11 0.11 96 1007.9
20260505183637 54 0.0 0.0 0.00 0.11 0.11 96 1007.9
20260505182604 54 351 0.0 1.0 0.00 0.11 0.11 96 1007.9
20260505181046 54 325 2.0 5.0 0.00 0.11 0.11 96 1008.1
20260505180158 54 331 1.0 3.0 0.00 0.11 0.11 96 1008.0
20260505175138 54 319 2.0 5.0 0.00 0.11 0.11 96 1007.8
20260505174042 54 358 1.0 2.0 0.00 0.11 0.11 96 1008.0
20260505173202 55 0.0 0.0 0.00 0.11 0.11 95 1008.0
20260505172201 55 298 0.0 2.0 0.00 0.11 0.11 95 1008.3
20260505171139 55 293 1.0 3.0 0.00 0.11 0.11 95 1008.2
20260505170126 55 317 0.0 5.0 0.00 0.11 0.11 95 1008.2
20260505165228 55 300 0.0 2.0 0.00 0.11 0.11 95 1008.2
20260505164116 55 0.0 0.0 0.00 0.11 0.11 95 1008.2
20260505163127 55 303 2.0 7.0 0.00 0.11 0.11 95 1008.1
20260505162202 55 359 2.0 7.0 0.00 0.11 0.11 94 1008.2
20260505161205 55 300 1.0 5.0 0.00 0.11 0.11 95 1008.4
20260505160118 56 11 1.0 3.0 0.00 0.11 0.11 95 1008.4
20260505153118 55 317 1.0 6.0 0.00 0.11 0.11 95 1008.5
20260505152054 56 31 1.0 5.0 0.00 0.11 0.11 95 1008.6
20260505151114 56 300 1.0 6.0 0.00 0.11 0.11 95 1008.5
20260505150119 56 317 1.0 6.0 0.00 0.11 0.11 95 1008.5
20260505140116 56 332 2.0 5.0 0.00 0.11 0.11 96 1009.1
20260505124148 59 309 1.0 5.0 0.00 0.11 0.11 93 1008.9
20260505123039 59 288 1.0 5.0 0.00 0.11 0.11 94 1008.9
20260505122144 59 318 1.0 6.0 0.00 0.11 0.11 95 1008.8
20260505121104 59 321 4.0 8.0 0.00 0.11 0.11 94 1009.0
20260505120205 60 311 2.0 5.0 0.00 0.11 0.11 93 1009.0
20260505115106 59 332 1.0 5.0 0.00 0.11 0.11 95 1009.1
20260505114055 59 307 3.0 5.0 0.00 0.11 0.11 94 1009.0
20260505113147 59 0.0 0.0 0.00 0.11 0.11 92 1009.0
20260505112113 60 318 2.0 3.0 0.00 0.11 0.11 92 1009.0
20260505111036 59 306 1.0 5.0 0.00 0.11 0.11 93 1009.2
20260505110144 59 0.0 0.0 0.00 0.11 0.11 94 1009.1
20260505102104 59 0.0 0.0 0.00 0.11 0.11 98 1009.2
20260505101124 58 0.0 0.0 0.01 0.11 0.11 99 1009.3
20260505100218 58 0.0 0.0 0.01 0.11 0.11 99 1009.4
20260505095101 57 0.0 0.0 0.01 0.11 0.11 99 1009.4
20260505094140 57 0.0 0.0 0.01 0.11 0.11 99 1009.4
20260505093130 57 0.0 0.0 0.02 0.11 0.11 99 1009.5
20260505092124 57 0.0 0.0 0.02 0.11 0.11 99 1009.4